Home   Weather   Nizhny Novgorod   Past weeks

Flag for Russia Past Weather in Nizhny Novgorod, Russia — Yesterday and Last 2 Weeks

Now
16 °F

Light snow. Passing clouds.


Feels Like: 16 °F
Forecast: 11 / 17 °F
Wind: No wind

Location: Nizhny Novgorod/Strigino

Current Time: Dec 4, 2016 at 1:08:35 am

Latest Report: Dec 4, 2016 at 12:30 am


Visibility: 6 mi

Pressure: 29.80 "Hg

Humidity: 86%

Dew Point: 12 °F

Location of Nizhny NovgorodLocation

Past Weather in Nizhny Novgorod — Graph

°F

Nizhny Novgorod Temperature Yesterday

Maximum temperature yesterday: 21 °F (at 12:00 am)
Minimum temperature yesterday: 5 °F (at 5:00 pm)
Average temperature yesterday: 15 °F

High & Low Weather Summary for the Past Weeks

 TemperatureHumidityPressure
High36 °F (Nov 25, 3:00 pm)100% (Nov 25, 9:30 pm)30.86 "Hg (Nov 25, 9:30 pm)
Low-6 °F (Nov 30, 10:30 pm)34% (Nov 23, 6:30 pm)29.18 "Hg (Nov 27, 11:30 am)
Average23 °F77%30.05 "Hg
* Reported Nov 19 12:00 am — Dec 4 12:00 am, Nizhny Novgorod, Weather by CustomWeather, © 2016

Note: Actual official high and low records may vary slightly from our data, if they occured in-between our weather recording intervals... More about our weather records

Advertising

Nizhny Novgorod Weather History for the Previous 24 Hours

Scroll right to see more
 ConditionsComfort  
Time TempWeatherWind HumidityBarometerVisibility
12:00 am
Sun, Dec 4
14 °FLight snow. Passing clouds.No wind92%29.80 "Hg4 mi
11:30 pm
Sat, Dec 3
14 °FLight snow. Passing clouds.No wind92%29.80 "Hg6 mi
11:00 pm14 °FLight snow. Passing clouds.No wind92%29.80 "Hg6 mi
10:30 pm14 °FPassing clouds.No wind92%29.80 "Hg4 mi
10:00 pm14 °FLight snow. Passing clouds.No wind92%29.80 "Hg4 mi
9:30 pm14 °FLight snow. Passing clouds.1 mph92%29.80 "Hg3 mi
9:00 pm12 °FLight snow. Passing clouds.No wind92%29.80 "Hg4 mi
8:30 pm10 °FLight snow. Passing clouds.No wind92%29.80 "Hg4 mi
8:00 pm10 °FIce fog.No wind92%29.80 "Hg1 mi
7:30 pm9 °FIce fog.No wind85%29.80 "Hg1 mi
7:00 pm7 °FIce fog.No wind85%29.80 "Hg1 mi
6:30 pm7 °FIce fog.No wind85%29.80 "Hg2 mi
6:00 pm5 °FIce fog.No wind92%29.80 "Hg1 mi
5:30 pm5 °FIce fog.No wind92%29.80 "Hg3 mi
5:00 pm5 °FFrigid.No wind92%29.80 "Hg4 mi
4:30 pm9 °FClear.No wind85%29.80 "Hg6 mi
4:00 pm9 °FClear.No wind92%29.80 "Hg10 mi
3:30 pm12 °FClear.No wind92%29.80 "Hg10 mi
3:00 pm16 °FSunny.1 mph86%29.80 "Hg10 mi
2:30 pm19 °FPassing clouds.No wind79%29.80 "HgN/A
2:00 pm19 °FLight snow. Passing clouds.No wind79%29.80 "HgN/A
1:30 pm18 °FLight snow. Passing clouds.No wind86%29.80 "HgN/A
1:00 pm19 °FLight snow. Scattered clouds.No wind79%29.80 "HgN/A
12:30 pm19 °FLight snow. Partly sunny.No wind79%29.80 "HgN/A
12:00 pm18 °FLight snow. Overcast.1 mph86%29.80 "Hg6 mi
11:30 am18 °FLight snow. Overcast.3 mph86%29.80 "Hg4 mi
11:00 am18 °FLight snow. Overcast.3 mph86%29.80 "Hg6 mi
10:30 am18 °FLight snow. Partly sunny.3 mph86%29.83 "HgN/A
10:00 am18 °FLight snow. Partly sunny.1 mph86%29.80 "HgN/A
9:30 am16 °FLight snow. Scattered clouds.1 mph93%29.80 "Hg6 mi
9:00 am14 °FLight snow. Partly sunny.No wind85%29.80 "HgN/A
8:30 am14 °FLight snow. Partly sunny.1 mph85%29.80 "HgN/A
8:00 am16 °FLight snow. Passing clouds.No wind86%29.80 "HgN/A
7:30 am16 °FLight snow. Passing clouds.1 mph93%29.80 "HgN/A
7:00 am18 °FLight snow. Passing clouds.6 mph86%29.80 "HgN/A
6:30 am18 °FLight snow. Passing clouds.6 mph93%29.80 "Hg5 mi
6:00 am18 °FPassing clouds.3 mph93%29.80 "HgN/A
5:00 am18 °FLight snow. Overcast.8 mph93%29.83 "Hg6 mi
4:00 am19 °FLight snow. Overcast.8 mph86%29.83 "HgN/A
3:30 am19 °FLight snow. Overcast.8 mph86%29.83 "HgN/A
3:00 am19 °FLight snow. Overcast.8 mph86%29.83 "HgN/A
2:30 am19 °FLight snow. Overcast.6 mph93%29.83 "HgN/A
2:00 am19 °FLight snow. Overcast.6 mph93%29.83 "Hg5 mi
1:30 am21 °FLight snow. Overcast.6 mph86%29.83 "Hg3 mi
1:00 am21 °FLight snow. Overcast.6 mph86%29.83 "Hg4 mi
Weather by CustomWeather, © 2016

See weather overviewHow to use our weather pages